Year,Month,Day,Hour,Minute,Value (Times are PST for windgust in km/hr)
2016,03,14,00,00,4.80
2016,03,14,00,01,4.80
2016,03,14,00,02,4.80
2016,03,14,00,03,4.80
2016,03,14,00,04,4.80
2016,03,14,00,05,4.80
2016,03,14,00,06,4.80
2016,03,14,00,07,4.80
2016,03,14,00,08,4.80
2016,03,14,00,09,6.40
2016,03,14,00,10,4.80
2016,03,14,00,11,4.80
2016,03,14,00,12,6.40
2016,03,14,00,13,4.80
2016,03,14,00,14,6.40
2016,03,14,00,15,4.80
2016,03,14,00,16,3.20
2016,03,14,00,17,3.20
2016,03,14,00,18,4.80
2016,03,14,00,19,4.80
2016,03,14,00,20,4.80
2016,03,14,00,21,4.80
2016,03,14,00,22,4.80
2016,03,14,00,23,4.80
2016,03,14,00,24,4.80
2016,03,14,00,25,4.80
2016,03,14,00,26,4.80
2016,03,14,00,27,3.20
2016,03,14,00,28,3.20
2016,03,14,00,29,4.80
2016,03,14,00,30,4.80
2016,03,14,00,31,4.80
2016,03,14,00,32,3.20
2016,03,14,00,33,3.20
2016,03,14,00,34,3.20
2016,03,14,00,35,3.20
2016,03,14,00,36,3.20
2016,03,14,00,37,4.80
2016,03,14,00,38,3.20
2016,03,14,00,39,3.20
2016,03,14,00,40,4.80
2016,03,14,00,41,3.20
2016,03,14,00,42,3.20
2016,03,14,00,43,3.20
2016,03,14,00,44,3.20
2016,03,14,00,45,3.20
2016,03,14,00,46,1.60
2016,03,14,00,47,1.60
2016,03,14,00,48,1.60
2016,03,14,00,49,3.20
2016,03,14,00,50,3.20
2016,03,14,00,51,3.20
2016,03,14,00,52,3.20
2016,03,14,00,53,3.20
2016,03,14,00,54,3.20
2016,03,14,00,55,4.80
2016,03,14,00,56,3.20
2016,03,14,00,57,3.20
2016,03,14,00,58,4.80
2016,03,14,00,59,4.80
2016,03,14,01,00,4.80
2016,03,14,01,01,4.80
2016,03,14,01,02,4.80
2016,03,14,01,03,4.80
2016,03,14,01,04,3.20
2016,03,14,01,05,4.80
2016,03,14,01,06,4.80
2016,03,14,01,07,4.80
2016,03,14,01,08,4.80
2016,03,14,01,09,4.80
2016,03,14,01,10,3.20
2016,03,14,01,11,3.20
2016,03,14,01,12,3.20
2016,03,14,01,13,3.20
2016,03,14,01,14,1.60
2016,03,14,01,15,1.60
2016,03,14,01,16,3.20
2016,03,14,01,17,3.20
2016,03,14,01,18,3.20
2016,03,14,01,19,3.20
2016,03,14,01,20,3.20
2016,03,14,01,21,1.60
2016,03,14,01,22,3.20
2016,03,14,01,23,3.20
2016,03,14,01,24,1.60
2016,03,14,01,25,3.20
2016,03,14,01,26,3.20
2016,03,14,01,28,1.60
2016,03,14,01,29,1.60
2016,03,14,01,30,1.60
2016,03,14,01,31,1.60
2016,03,14,01,32,3.20
2016,03,14,01,33,1.60
2016,03,14,01,34,1.60
2016,03,14,01,35,1.60
2016,03,14,01,36,1.60
2016,03,14,01,37,1.60
2016,03,14,01,38,1.60
2016,03,14,01,39,3.20
2016,03,14,01,40,3.20
2016,03,14,01,41,3.20
2016,03,14,01,42,3.20
2016,03,14,01,43,3.20
2016,03,14,01,44,3.20
2016,03,14,01,45,3.20
2016,03,14,01,46,3.20
2016,03,14,01,47,3.20
2016,03,14,01,48,3.20
2016,03,14,01,49,3.20
2016,03,14,01,50,3.20
2016,03,14,01,51,3.20
2016,03,14,01,52,3.20
2016,03,14,01,53,3.20
2016,03,14,01,54,3.20
2016,03,14,01,55,3.20
2016,03,14,01,56,3.20
2016,03,14,01,57,1.60
2016,03,14,01,58,3.20
2016,03,14,01,59,1.60
2016,03,14,02,00,1.60
2016,03,14,02,01,3.20
2016,03,14,02,02,1.60
2016,03,14,02,03,1.60
2016,03,14,02,04,1.60
2016,03,14,02,05,1.60
2016,03,14,02,06,1.60
2016,03,14,02,07,3.20
2016,03,14,02,08,1.60
2016,03,14,02,09,3.20
2016,03,14,02,10,1.60
2016,03,14,02,11,1.60
2016,03,14,02,12,1.60
2016,03,14,02,16,1.60
2016,03,14,02,17,3.20
2016,03,14,02,18,3.20
2016,03,14,02,19,3.20
2016,03,14,02,20,4.80
2016,03,14,02,21,3.20
2016,03,14,02,22,3.20
2016,03,14,02,23,1.60
2016,03,14,02,24,3.20
2016,03,14,02,25,3.20
2016,03,14,02,26,1.60
2016,03,14,02,27,3.20
2016,03,14,02,28,4.80
2016,03,14,02,29,3.20
2016,03,14,02,30,3.20
2016,03,14,02,31,3.20
2016,03,14,02,32,1.60
2016,03,14,02,33,1.60
2016,03,14,02,34,1.60
2016,03,14,02,35,3.20
2016,03,14,02,36,1.60
2016,03,14,02,37,1.60
2016,03,14,02,38,3.20
2016,03,14,02,39,3.20
2016,03,14,02,40,3.20
2016,03,14,02,41,3.20
2016,03,14,02,42,3.20
2016,03,14,02,43,3.20
2016,03,14,02,44,1.60
2016,03,14,02,45,3.20
2016,03,14,02,46,3.20
2016,03,14,02,47,3.20
2016,03,14,02,48,3.20
2016,03,14,02,49,3.20
2016,03,14,02,50,4.80
2016,03,14,02,51,3.20
2016,03,14,02,52,3.20
2016,03,14,02,53,3.20
2016,03,14,02,54,3.20
2016,03,14,02,55,3.20
2016,03,14,02,56,4.80
2016,03,14,02,57,4.80
2016,03,14,02,58,3.20
2016,03,14,02,59,4.80
2016,03,14,03,00,4.80
2016,03,14,03,01,4.80
2016,03,14,03,02,4.80
2016,03,14,03,03,3.20
2016,03,14,03,04,4.80
2016,03,14,03,05,4.80
2016,03,14,03,06,3.20
2016,03,14,03,07,3.20
2016,03,14,03,08,3.20
2016,03,14,03,09,3.20
2016,03,14,03,10,3.20
2016,03,14,03,11,3.20
2016,03,14,03,12,1.60
2016,03,14,03,13,3.20
2016,03,14,03,14,3.20
2016,03,14,03,15,3.20
2016,03,14,03,16,3.20
2016,03,14,03,17,3.20
2016,03,14,03,18,1.60
2016,03,14,03,19,1.60
2016,03,14,03,20,3.20
2016,03,14,03,21,3.20
2016,03,14,03,22,3.20
2016,03,14,03,23,3.20
2016,03,14,03,24,3.20
2016,03,14,03,25,3.20
2016,03,14,03,26,3.20
2016,03,14,03,27,3.20
2016,03,14,03,28,3.20
2016,03,14,03,29,1.60
2016,03,14,03,30,3.20
2016,03,14,03,31,1.60
2016,03,14,03,32,1.60
2016,03,14,03,33,1.60
2016,03,14,03,54,4.80
2016,03,14,03,55,4.80
2016,03,14,03,56,4.80
2016,03,14,03,57,3.20
2016,03,14,03,58,4.80
2016,03,14,03,59,3.20
2016,03,14,04,00,4.80
2016,03,14,04,01,6.40
2016,03,14,04,02,4.80
2016,03,14,04,03,3.20
2016,03,14,04,04,1.60
2016,03,14,04,05,1.60
2016,03,14,04,11,3.20
2016,03,14,04,12,3.20
2016,03,14,04,13,4.80
2016,03,14,04,14,4.80
2016,03,14,04,15,4.80
2016,03,14,04,16,4.80
2016,03,14,04,17,4.80
2016,03,14,04,18,3.20
2016,03,14,04,19,3.20
2016,03,14,04,20,1.60
2016,03,14,04,21,1.60
2016,03,14,04,22,1.60
2016,03,14,04,23,1.60
2016,03,14,04,24,3.20
2016,03,14,04,26,1.60
2016,03,14,04,59,3.20
2016,03,14,05,00,4.80
2016,03,14,05,01,3.20
2016,03,14,05,02,3.20
2016,03,14,05,03,3.20
2016,03,14,05,04,3.20
2016,03,14,05,05,3.20
2016,03,14,05,06,3.20
2016,03,14,05,07,3.20
2016,03,14,05,08,4.80
2016,03,14,05,09,4.80
2016,03,14,05,10,4.80
2016,03,14,05,11,4.80
2016,03,14,05,12,4.80
2016,03,14,05,13,4.80
2016,03,14,05,14,4.80
2016,03,14,05,15,4.80
2016,03,14,05,16,4.80
2016,03,14,05,17,4.80
2016,03,14,05,18,4.80
2016,03,14,05,19,4.80
2016,03,14,05,20,3.20
2016,03,14,05,21,3.20
2016,03,14,05,22,3.20
2016,03,14,05,23,4.80
2016,03,14,05,24,4.80
2016,03,14,05,25,3.20
2016,03,14,05,26,3.20
2016,03,14,05,27,3.20
2016,03,14,05,28,3.20
2016,03,14,05,29,3.20
2016,03,14,05,30,1.60
2016,03,14,05,31,3.20
2016,03,14,05,32,3.20
2016,03,14,05,33,4.80
2016,03,14,05,34,4.80
2016,03,14,05,35,4.80
2016,03,14,05,36,3.20
2016,03,14,05,37,4.80
2016,03,14,05,38,4.80
2016,03,14,05,39,6.40
2016,03,14,05,40,6.40
2016,03,14,05,41,4.80
2016,03,14,05,42,6.40
2016,03,14,05,43,4.80
2016,03,14,05,44,4.80
2016,03,14,05,45,4.80
2016,03,14,05,46,4.80
2016,03,14,05,47,3.20
2016,03,14,05,48,3.20
2016,03,14,05,49,3.20
2016,03,14,05,50,3.20
2016,03,14,05,51,1.60
2016,03,14,05,52,1.60
2016,03,14,05,54,1.60
2016,03,14,05,56,1.60
2016,03,14,05,57,1.60
2016,03,14,05,58,1.60
2016,03,14,05,59,3.20
2016,03,14,06,00,3.20
2016,03,14,06,01,3.20
2016,03,14,06,02,1.60
2016,03,14,06,03,3.20
2016,03,14,06,04,1.60
2016,03,14,06,05,3.20
2016,03,14,06,06,3.20
2016,03,14,06,07,3.20
2016,03,14,06,08,3.20
2016,03,14,06,09,3.20
2016,03,14,06,10,3.20
2016,03,14,06,11,3.20
2016,03,14,06,12,3.20
2016,03,14,06,13,3.20
2016,03,14,06,14,1.60
2016,03,14,06,15,1.60
2016,03,14,06,16,1.60
2016,03,14,06,17,1.60
2016,03,14,06,18,1.60
2016,03,14,06,19,1.60
2016,03,14,06,20,1.60
2016,03,14,06,21,1.60
2016,03,14,06,22,1.60
2016,03,14,06,23,1.60
2016,03,14,06,24,1.60
2016,03,14,06,26,1.60
2016,03,14,06,27,1.60
2016,03,14,06,29,3.20
2016,03,14,06,30,3.20
2016,03,14,06,31,3.20
2016,03,14,06,32,3.20
2016,03,14,06,33,3.20
2016,03,14,06,34,1.60
2016,03,14,06,35,1.60
2016,03,14,06,36,1.60
2016,03,14,06,37,1.60
2016,03,14,06,38,1.60
2016,03,14,06,39,1.60
2016,03,14,06,40,1.60
2016,03,14,06,41,1.60
2016,03,14,06,42,1.60
2016,03,14,06,43,4.80
2016,03,14,06,44,3.20
2016,03,14,06,45,4.80
2016,03,14,06,46,3.20
2016,03,14,06,47,3.20
2016,03,14,06,48,3.20
2016,03,14,06,49,3.20
2016,03,14,06,50,3.20
2016,03,14,06,51,3.20
2016,03,14,06,52,3.20
2016,03,14,06,53,3.20
2016,03,14,06,54,3.20
2016,03,14,06,55,3.20
2016,03,14,06,56,3.20
2016,03,14,06,57,3.20
2016,03,14,06,58,3.20
2016,03,14,06,59,3.20
2016,03,14,07,00,3.20
2016,03,14,07,01,3.20
2016,03,14,07,02,3.20
2016,03,14,07,03,3.20
2016,03,14,07,04,3.20
2016,03,14,07,05,3.20
2016,03,14,07,06,4.80
2016,03,14,07,07,3.20
2016,03,14,07,08,1.60
2016,03,14,07,09,1.60
2016,03,14,07,10,3.20
2016,03,14,07,11,3.20
2016,03,14,07,12,3.20
2016,03,14,07,13,3.20
2016,03,14,07,14,3.20
2016,03,14,07,15,1.60
2016,03,14,07,16,1.60
2016,03,14,07,17,1.60
2016,03,14,07,18,1.60
2016,03,14,07,19,3.20
2016,03,14,07,20,3.20
2016,03,14,07,21,3.20
2016,03,14,07,22,3.20
2016,03,14,07,23,3.20
2016,03,14,07,24,3.20
2016,03,14,07,25,1.60
2016,03,14,07,26,3.20
2016,03,14,07,27,1.60
2016,03,14,07,28,1.60
2016,03,14,07,29,1.60
2016,03,14,07,30,1.60
2016,03,14,07,31,1.60
2016,03,14,07,32,1.60
2016,03,14,08,27,3.20
2016,03,14,08,28,3.20
2016,03,14,08,29,3.20
2016,03,14,08,30,3.20
2016,03,14,08,31,3.20
2016,03,14,08,32,3.20
2016,03,14,08,33,3.20
2016,03,14,08,34,3.20
2016,03,14,08,35,3.20
2016,03,14,08,36,1.60
2016,03,14,08,37,3.20
2016,03,14,08,38,3.20
2016,03,14,08,39,3.20
2016,03,14,08,40,3.20
2016,03,14,08,41,3.20
2016,03,14,08,42,3.20
2016,03,14,08,43,3.20
2016,03,14,08,44,3.20
2016,03,14,08,45,3.20
2016,03,14,08,46,3.20
2016,03,14,08,48,3.20
2016,03,14,08,49,3.20
2016,03,14,08,51,3.20
2016,03,14,08,52,1.60
2016,03,14,08,53,3.20
2016,03,14,08,54,1.60
2016,03,14,08,55,1.60
2016,03,14,08,58,1.60
2016,03,14,08,59,1.60
2016,03,14,09,00,1.60
2016,03,14,09,01,3.20
2016,03,14,09,02,1.60
2016,03,14,09,06,3.20
2016,03,14,09,07,1.60
2016,03,14,09,13,4.80
2016,03,14,09,14,4.80
2016,03,14,09,15,4.80
2016,03,14,09,16,3.20
2016,03,14,09,17,3.20
2016,03,14,09,18,3.20
2016,03,14,09,19,3.20
2016,03,14,09,20,3.20
2016,03,14,09,21,4.80
2016,03,14,09,22,4.80
2016,03,14,09,23,4.80
2016,03,14,09,24,4.80
2016,03,14,09,25,4.80
2016,03,14,09,26,4.80
2016,03,14,09,27,4.80
2016,03,14,09,28,4.80
2016,03,14,09,29,4.80
2016,03,14,09,30,3.20
2016,03,14,09,31,3.20
2016,03,14,09,32,6.40
2016,03,14,09,33,6.40
2016,03,14,09,34,4.80
2016,03,14,09,35,4.80
2016,03,14,09,36,1.60
2016,03,14,09,37,4.80
2016,03,14,09,38,3.20
2016,03,14,09,39,4.80
2016,03,14,09,40,4.80
2016,03,14,09,41,3.20
2016,03,14,09,42,1.60
2016,03,14,09,43,3.20
2016,03,14,09,44,3.20
2016,03,14,09,45,1.60
2016,03,14,09,48,3.20
2016,03,14,09,49,4.80
2016,03,14,09,50,4.80
2016,03,14,09,51,4.80
2016,03,14,09,52,6.40
2016,03,14,09,53,3.20
2016,03,14,09,54,6.40
2016,03,14,09,55,6.40
2016,03,14,09,56,8.10
2016,03,14,09,57,4.80
2016,03,14,09,58,4.80
2016,03,14,09,59,4.80
2016,03,14,10,00,8.10
2016,03,14,10,01,4.80
2016,03,14,10,02,4.80
2016,03,14,10,03,8.10
2016,03,14,10,04,8.10
2016,03,14,10,05,6.40
2016,03,14,10,06,3.20
2016,03,14,10,07,3.20
2016,03,14,10,08,1.60
2016,03,14,10,09,4.80
2016,03,14,10,10,6.40
2016,03,14,10,11,6.40
2016,03,14,10,12,3.20
2016,03,14,10,13,4.80
2016,03,14,10,14,6.40
2016,03,14,10,15,4.80
2016,03,14,10,16,3.20
2016,03,14,10,17,3.20
2016,03,14,10,18,3.20
2016,03,14,10,19,3.20
2016,03,14,10,20,4.80
2016,03,14,10,21,3.20
2016,03,14,10,22,3.20
2016,03,14,10,23,1.60
2016,03,14,10,24,3.20
2016,03,14,10,25,3.20
2016,03,14,10,26,6.40
2016,03,14,10,27,6.40
2016,03,14,10,28,9.60
2016,03,14,10,29,14.50
2016,03,14,10,30,14.50
2016,03,14,10,31,14.50
2016,03,14,10,32,9.60
2016,03,14,10,33,4.80
2016,03,14,10,34,6.40
2016,03,14,10,35,4.80
2016,03,14,10,36,6.40
2016,03,14,10,37,16.10
2016,03,14,10,38,16.10
2016,03,14,10,39,12.90
2016,03,14,10,40,12.90
2016,03,14,10,41,9.60
2016,03,14,10,42,9.60
2016,03,14,10,43,17.70
2016,03,14,10,44,17.70
2016,03,14,10,45,12.90
2016,03,14,10,46,11.30
2016,03,14,10,47,8.10
2016,03,14,10,48,6.40
2016,03,14,10,49,11.30
2016,03,14,10,50,16.10
2016,03,14,10,51,17.70
2016,03,14,10,52,14.50
2016,03,14,10,53,17.70
2016,03,14,10,54,17.70
2016,03,14,10,55,11.30
2016,03,14,10,56,11.30
2016,03,14,10,57,12.90
2016,03,14,10,58,14.50
2016,03,14,10,59,14.50
2016,03,14,11,00,6.40
2016,03,14,11,01,11.30
2016,03,14,11,02,11.30
2016,03,14,11,03,6.40
2016,03,14,11,04,14.50
2016,03,14,11,05,17.70
2016,03,14,11,06,14.50
2016,03,14,11,07,14.50
2016,03,14,11,08,9.60
2016,03,14,11,09,9.60
2016,03,14,11,10,19.30
2016,03,14,11,11,12.90
2016,03,14,11,12,12.90
2016,03,14,11,13,9.60
2016,03,14,11,14,12.90
2016,03,14,11,15,14.50
2016,03,14,11,16,14.50
2016,03,14,11,17,14.50
2016,03,14,11,18,8.10
2016,03,14,11,19,14.50
2016,03,14,11,20,6.40
2016,03,14,11,21,4.80
2016,03,14,11,22,4.80
2016,03,14,11,23,12.90
2016,03,14,11,24,12.90
2016,03,14,11,25,14.50
2016,03,14,11,26,24.20
2016,03,14,11,27,22.50
2016,03,14,11,28,24.20
2016,03,14,11,29,25.70
2016,03,14,11,30,19.30
2016,03,14,11,31,12.90
2016,03,14,11,32,12.90
2016,03,14,11,33,12.90
2016,03,14,11,34,16.10
2016,03,14,11,35,17.70
2016,03,14,11,36,22.50
2016,03,14,11,37,16.10
2016,03,14,11,38,9.60
2016,03,14,11,39,19.30
2016,03,14,11,40,12.90
2016,03,14,11,41,12.90
2016,03,14,11,42,12.90
2016,03,14,11,43,12.90
2016,03,14,11,44,11.30
2016,03,14,11,45,22.50
2016,03,14,11,46,24.20
2016,03,14,11,47,17.70
2016,03,14,11,48,22.50
2016,03,14,11,49,12.90
2016,03,14,11,50,16.10
2016,03,14,11,51,27.40
2016,03,14,11,52,27.40
2016,03,14,11,53,17.70
2016,03,14,11,54,17.70
2016,03,14,11,55,16.10
2016,03,14,11,56,19.30
2016,03,14,11,57,22.50
2016,03,14,11,58,30.60
2016,03,14,11,59,16.10
2016,03,14,12,00,12.90
2016,03,14,12,01,29.00
2016,03,14,12,02,33.80
2016,03,14,12,03,16.10
2016,03,14,12,04,25.70
2016,03,14,12,05,20.90
2016,03,14,12,06,27.40
2016,03,14,12,07,24.20
2016,03,14,12,08,16.10
2016,03,14,12,09,24.20
2016,03,14,12,10,27.40
2016,03,14,12,11,19.30
2016,03,14,12,12,16.10
2016,03,14,12,13,19.30
2016,03,14,12,14,19.30
2016,03,14,12,15,24.20
2016,03,14,12,16,27.40
2016,03,14,12,17,25.70
2016,03,14,12,18,9.60
2016,03,14,12,19,24.20
2016,03,14,12,20,20.90
2016,03,14,12,21,20.90
2016,03,14,12,22,20.90
2016,03,14,12,23,27.40
2016,03,14,12,24,17.70
2016,03,14,12,25,12.90
2016,03,14,12,26,19.30
2016,03,14,12,27,24.20
2016,03,14,12,28,24.20
2016,03,14,12,29,20.90
2016,03,14,12,30,20.90
2016,03,14,12,31,24.20
2016,03,14,12,32,30.60
2016,03,14,12,33,17.70
2016,03,14,12,34,16.10
2016,03,14,12,35,17.70
2016,03,14,12,36,19.30
2016,03,14,12,37,16.10
2016,03,14,12,38,14.50
2016,03,14,12,39,16.10
2016,03,14,12,40,16.10
2016,03,14,12,41,20.90
2016,03,14,12,42,17.70
2016,03,14,12,43,22.50
2016,03,14,12,44,17.70
2016,03,14,12,45,20.90
2016,03,14,12,46,14.50
2016,03,14,12,47,9.60
2016,03,14,12,48,16.10
2016,03,14,12,49,8.10
2016,03,14,12,50,17.70
2016,03,14,12,51,12.90
2016,03,14,12,52,11.30
2016,03,14,12,53,11.30
2016,03,14,12,54,9.60
2016,03,14,12,55,4.80
2016,03,14,12,56,25.70
2016,03,14,12,57,32.20
2016,03,14,12,58,25.70
2016,03,14,12,59,33.80
2016,03,14,13,00,25.70
2016,03,14,13,01,16.10
2016,03,14,13,02,22.50
2016,03,14,13,03,19.30
2016,03,14,13,04,30.60
2016,03,14,13,05,14.50
2016,03,14,13,06,14.50
2016,03,14,13,07,24.20
2016,03,14,13,08,16.10
2016,03,14,13,09,22.50
2016,03,14,13,10,16.10
2016,03,14,13,11,17.70
2016,03,14,13,12,17.70
2016,03,14,13,13,17.70
2016,03,14,13,14,30.60
2016,03,14,13,15,27.40
2016,03,14,13,16,33.80
2016,03,14,13,17,25.70
2016,03,14,13,18,17.70
2016,03,14,13,19,19.30
2016,03,14,13,20,20.90
2016,03,14,13,21,19.30
2016,03,14,13,22,14.50
2016,03,14,13,23,20.90
2016,03,14,13,24,20.90
2016,03,14,13,25,19.30
2016,03,14,13,26,24.20
2016,03,14,13,27,20.90
2016,03,14,13,28,14.50
2016,03,14,13,29,11.30
2016,03,14,13,30,19.30
2016,03,14,13,31,14.50
2016,03,14,13,32,11.30
2016,03,14,13,33,8.10
2016,03,14,13,34,25.70
2016,03,14,13,35,19.30
2016,03,14,13,36,24.20
2016,03,14,13,37,17.70
2016,03,14,13,38,16.10
2016,03,14,13,39,11.30
2016,03,14,13,40,25.70
2016,03,14,13,41,14.50
2016,03,14,13,42,32.20
2016,03,14,13,43,20.90
2016,03,14,13,44,25.70
2016,03,14,13,45,27.40
2016,03,14,13,46,25.70
2016,03,14,13,47,17.70
2016,03,14,13,48,16.10
2016,03,14,13,49,14.50
2016,03,14,13,50,16.10
2016,03,14,13,51,11.30
2016,03,14,13,52,6.40
2016,03,14,13,53,8.10
2016,03,14,13,54,14.50
2016,03,14,13,55,17.70
2016,03,14,13,56,11.30
2016,03,14,13,57,12.90
2016,03,14,13,58,19.30
2016,03,14,13,59,16.10
2016,03,14,14,00,12.90
2016,03,14,14,01,12.90
2016,03,14,14,02,9.60
2016,03,14,14,03,11.30
2016,03,14,14,04,11.30
2016,03,14,14,05,8.10
2016,03,14,14,06,17.70
2016,03,14,14,07,11.30
2016,03,14,14,08,16.10
2016,03,14,14,09,14.50
2016,03,14,14,10,16.10
2016,03,14,14,11,14.50
2016,03,14,14,12,12.90
2016,03,14,14,13,11.30
2016,03,14,14,14,19.30
2016,03,14,14,15,12.90
2016,03,14,14,16,16.10
2016,03,14,14,17,17.70
2016,03,14,14,18,19.30
2016,03,14,14,19,11.30
2016,03,14,14,20,11.30
2016,03,14,14,21,11.30
2016,03,14,14,22,17.70
2016,03,14,14,23,19.30
2016,03,14,14,24,8.10
2016,03,14,14,25,12.90
2016,03,14,14,26,19.30
2016,03,14,14,27,19.30
2016,03,14,14,28,17.70
2016,03,14,14,29,16.10
2016,03,14,14,30,20.90
2016,03,14,14,31,16.10
2016,03,14,14,32,19.30
2016,03,14,14,33,16.10
2016,03,14,14,34,22.50
2016,03,14,14,35,22.50
2016,03,14,14,36,22.50
2016,03,14,14,37,17.70
2016,03,14,14,38,17.70
2016,03,14,14,39,12.90
2016,03,14,14,40,11.30
2016,03,14,14,41,22.50
2016,03,14,14,42,27.40
2016,03,14,14,43,12.90
2016,03,14,14,44,11.30
2016,03,14,14,45,19.30
2016,03,14,14,46,17.70
2016,03,14,14,47,17.70
2016,03,14,14,48,24.20
2016,03,14,14,49,20.90
2016,03,14,14,50,24.20
2016,03,14,14,51,24.20
2016,03,14,14,52,17.70
2016,03,14,14,53,19.30
2016,03,14,14,54,19.30
2016,03,14,14,55,22.50
2016,03,14,14,56,29.00
2016,03,14,14,57,37.00
2016,03,14,14,58,20.90
2016,03,14,14,59,33.80
2016,03,14,15,00,38.60
2016,03,14,15,01,25.70
2016,03,14,15,02,16.10
2016,03,14,15,03,20.90
2016,03,14,15,04,12.90
2016,03,14,15,05,16.10
2016,03,14,15,06,27.40
2016,03,14,15,07,27.40
2016,03,14,15,08,19.30
2016,03,14,15,09,20.90
2016,03,14,15,10,20.90
2016,03,14,15,11,29.00
2016,03,14,15,12,19.30
2016,03,14,15,13,12.90
2016,03,14,15,14,22.50
2016,03,14,15,15,27.40
2016,03,14,15,16,32.20
2016,03,14,15,17,29.00
2016,03,14,15,18,20.90
2016,03,14,15,19,22.50
2016,03,14,15,20,20.90
2016,03,14,15,21,20.90
2016,03,14,15,22,27.40
2016,03,14,15,23,17.70
2016,03,14,15,24,17.70
2016,03,14,15,25,14.50
2016,03,14,15,26,16.10
2016,03,14,15,27,24.20
2016,03,14,15,28,22.50
2016,03,14,15,29,12.90
2016,03,14,15,30,12.90
2016,03,14,15,31,29.00
2016,03,14,15,32,20.90
2016,03,14,15,33,16.10
2016,03,14,15,34,14.50
2016,03,14,15,35,16.10
2016,03,14,15,36,16.10
2016,03,14,15,37,11.30
2016,03,14,15,38,27.40
2016,03,14,15,39,27.40
2016,03,14,15,40,17.70
2016,03,14,15,41,20.90
2016,03,14,15,42,20.90
2016,03,14,15,43,16.10
2016,03,14,15,44,24.20
2016,03,14,15,45,29.00
2016,03,14,15,46,22.50
2016,03,14,15,47,14.50
2016,03,14,15,48,14.50
2016,03,14,15,49,14.50
2016,03,14,15,50,12.90
2016,03,14,15,51,17.70
2016,03,14,15,52,14.50
2016,03,14,15,53,19.30
2016,03,14,15,54,16.10
2016,03,14,15,55,9.60
2016,03,14,15,56,27.40
2016,03,14,15,57,27.40
2016,03,14,15,58,27.40
2016,03,14,15,59,12.90
2016,03,14,16,00,20.90
2016,03,14,16,01,25.70
2016,03,14,16,02,29.00
2016,03,14,16,03,20.90
2016,03,14,16,04,19.30
2016,03,14,16,05,22.50
2016,03,14,16,06,11.30
2016,03,14,16,07,16.10
2016,03,14,16,08,11.30
2016,03,14,16,09,24.20
2016,03,14,16,10,12.90
2016,03,14,16,11,19.30
2016,03,14,16,12,19.30
2016,03,14,16,13,19.30
2016,03,14,16,14,20.90
2016,03,14,16,15,12.90
2016,03,14,16,16,14.50
2016,03,14,16,17,9.60
2016,03,14,16,18,27.40
2016,03,14,16,19,19.30
2016,03,14,16,20,20.90
2016,03,14,16,21,17.70
2016,03,14,16,22,14.50
2016,03,14,16,23,11.30
2016,03,14,16,24,14.50
2016,03,14,16,25,9.60
2016,03,14,16,26,14.50
2016,03,14,16,27,11.30
2016,03,14,16,28,11.30
2016,03,14,16,29,11.30
2016,03,14,16,30,14.50
2016,03,14,16,31,14.50
2016,03,14,16,32,16.10
2016,03,14,16,33,11.30
2016,03,14,16,34,9.60
2016,03,14,16,35,8.10
2016,03,14,16,36,12.90
2016,03,14,16,37,16.10
2016,03,14,16,38,12.90
2016,03,14,16,39,14.50
2016,03,14,16,40,14.50
2016,03,14,16,41,19.30
2016,03,14,16,42,24.20
2016,03,14,16,43,19.30
2016,03,14,16,44,20.90
2016,03,14,16,45,12.90
2016,03,14,16,46,17.70
2016,03,14,16,47,16.10
2016,03,14,16,48,12.90
2016,03,14,16,49,6.40
2016,03,14,16,50,8.10
2016,03,14,16,51,16.10
2016,03,14,16,52,19.30
2016,03,14,16,53,12.90
2016,03,14,16,54,14.50
2016,03,14,16,55,16.10
2016,03,14,16,56,12.90
2016,03,14,16,57,22.50
2016,03,14,16,58,14.50
2016,03,14,16,59,14.50
2016,03,14,17,00,11.30
2016,03,14,17,01,20.90
2016,03,14,17,02,22.50
2016,03,14,17,03,12.90
2016,03,14,17,04,11.30
2016,03,14,17,05,11.30
2016,03,14,17,06,14.50
2016,03,14,17,07,14.50
2016,03,14,17,08,11.30
2016,03,14,17,09,30.60
2016,03,14,17,10,20.90
2016,03,14,17,11,20.90
2016,03,14,17,12,17.70
2016,03,14,17,13,25.70
2016,03,14,17,14,33.80
2016,03,14,17,15,25.70
2016,03,14,17,16,25.70
2016,03,14,17,17,8.10
2016,03,14,17,18,12.90
2016,03,14,17,19,11.30
2016,03,14,17,20,12.90
2016,03,14,17,21,19.30
2016,03,14,17,22,20.90
2016,03,14,17,23,14.50
2016,03,14,17,24,14.50
2016,03,14,17,25,17.70
2016,03,14,17,26,19.30
2016,03,14,17,27,19.30
2016,03,14,17,28,17.70
2016,03,14,17,29,27.40
2016,03,14,17,30,22.50
2016,03,14,17,31,19.30
2016,03,14,17,32,22.50
2016,03,14,17,33,19.30
2016,03,14,17,34,20.90
2016,03,14,17,35,11.30
2016,03,14,17,36,14.50
2016,03,14,17,37,16.10
2016,03,14,17,38,14.50
2016,03,14,17,39,6.40
2016,03,14,17,40,17.70
2016,03,14,17,41,19.30
2016,03,14,17,42,11.30
2016,03,14,17,43,19.30
2016,03,14,17,44,9.60
2016,03,14,17,45,12.90
2016,03,14,17,46,17.70
2016,03,14,17,47,12.90
2016,03,14,17,48,20.90
2016,03,14,17,49,19.30
2016,03,14,17,50,16.10
2016,03,14,17,51,19.30
2016,03,14,17,52,19.30
2016,03,14,17,53,17.70
2016,03,14,17,54,16.10
2016,03,14,17,55,20.90
2016,03,14,17,56,14.50
2016,03,14,17,57,25.70
2016,03,14,17,58,19.30
2016,03,14,17,59,11.30
2016,03,14,18,00,11.30
2016,03,14,18,01,6.40
2016,03,14,18,02,6.40
2016,03,14,18,03,14.50
2016,03,14,18,04,9.60
2016,03,14,18,05,3.20
2016,03,14,18,06,4.80
2016,03,14,18,07,4.80
2016,03,14,18,08,1.60
2016,03,14,18,09,1.60
2016,03,14,18,10,4.80
2016,03,14,18,11,1.60
2016,03,14,18,12,11.30
2016,03,14,18,13,4.80
2016,03,14,18,14,3.20
2016,03,14,18,15,4.80
2016,03,14,18,16,4.80
2016,03,14,18,17,8.10
2016,03,14,18,18,8.10
2016,03,14,18,19,14.50
2016,03,14,18,20,9.60
2016,03,14,18,21,4.80
2016,03,14,18,22,3.20
2016,03,14,18,23,8.10
2016,03,14,18,24,11.30
2016,03,14,18,25,11.30
2016,03,14,18,26,9.60
2016,03,14,18,27,6.40
2016,03,14,18,28,6.40
2016,03,14,18,29,11.30
2016,03,14,18,30,9.60
2016,03,14,18,31,8.10
2016,03,14,18,32,4.80
2016,03,14,18,33,4.80
2016,03,14,18,34,1.60
2016,03,14,18,39,4.80
2016,03,14,18,40,3.20
2016,03,14,18,44,1.60
2016,03,14,18,45,4.80
2016,03,14,18,46,1.60
2016,03,14,18,47,4.80
2016,03,14,18,48,4.80
2016,03,14,18,49,4.80
2016,03,14,18,50,4.80
2016,03,14,18,51,1.60
2016,03,14,18,52,1.60
2016,03,14,18,53,3.20
2016,03,14,18,55,3.20
2016,03,14,18,56,1.60
2016,03,14,18,58,1.60
2016,03,14,18,59,1.60
2016,03,14,19,00,3.20
2016,03,14,19,01,4.80
2016,03,14,19,02,3.20
2016,03,14,19,03,4.80
2016,03,14,19,04,6.40
2016,03,14,19,05,6.40
2016,03,14,19,06,11.30
2016,03,14,19,07,11.30
2016,03,14,19,08,3.20
2016,03,14,19,09,8.10
2016,03,14,19,10,8.10
2016,03,14,19,11,8.10
2016,03,14,19,12,4.80
2016,03,14,19,13,6.40
2016,03,14,19,14,4.80
2016,03,14,19,15,4.80
2016,03,14,19,16,3.20
2016,03,14,19,17,4.80
2016,03,14,19,18,3.20
2016,03,14,19,20,1.60
2016,03,14,19,23,3.20
2016,03,14,19,24,3.20
2016,03,14,19,25,4.80
2016,03,14,19,26,4.80
2016,03,14,19,27,4.80
2016,03,14,19,28,8.10
2016,03,14,19,29,6.40
2016,03,14,19,30,6.40
2016,03,14,19,31,4.80
2016,03,14,19,32,4.80
2016,03,14,19,33,3.20
2016,03,14,19,34,1.60
2016,03,14,19,35,3.20
2016,03,14,19,36,3.20
2016,03,14,19,37,3.20
2016,03,14,19,38,4.80
2016,03,14,19,39,3.20
2016,03,14,19,40,3.20
2016,03,14,19,41,1.60
2016,03,14,19,42,1.60
2016,03,14,19,43,1.60
2016,03,14,19,44,4.80
2016,03,14,19,45,8.10
2016,03,14,19,46,8.10
2016,03,14,19,47,9.60
2016,03,14,19,48,9.60
2016,03,14,19,49,11.30
2016,03,14,19,50,8.10
2016,03,14,19,51,8.10
2016,03,14,19,52,8.10
2016,03,14,19,53,8.10
2016,03,14,19,54,4.80
2016,03,14,19,55,4.80
2016,03,14,19,56,6.40
2016,03,14,19,57,6.40
2016,03,14,19,58,4.80
2016,03,14,19,59,4.80
2016,03,14,20,00,6.40
2016,03,14,20,01,1.60
2016,03,14,20,03,4.80
2016,03,14,20,04,4.80
2016,03,14,20,05,4.80
2016,03,14,20,06,6.40
2016,03,14,20,07,4.80
2016,03,14,20,08,4.80
2016,03,14,20,09,4.80
2016,03,14,20,10,4.80
2016,03,14,20,11,4.80
2016,03,14,20,12,4.80
2016,03,14,20,13,4.80
2016,03,14,20,14,4.80